Content
SEND FEEDBACK

Daily
Averages
Monthly
Summary
United States of America

WRIGHT, KANSAS


Home > North America > United States > Kansas
Elevation: 2532 feet     Latitude: 37 46N     Longitude: 099 58W

WEATHER
 
SELECT A DAY
Number of Records: 202,464;   Date Range: 1/1/95 - 8/12/14
 
SHARE

PRINT THIS DATA

[ ← Previous Day ]
WEATHER ALMANAC - JANUARY 31, 2013
[ Next Day → ]
[ °C ]   °F
Weather ElementAverageHighLow
Temperature25.9 °F37 °F (11:52 am)18 °F (10:52 pm)
Dewpoint18.5 °F28 °F (11:52 am)14 °F (10:52 pm)
Humidity74.2 %88 % (7:52 pm)58 % (1:52 am)
Barometer30.21 in30.41 in (7:52 pm)29.98 in (4:52 am)
Wind Speed9.3 mph17.3 mph (12:52 pm)
Wind Gust21.9 mph (3:28 pm)
Weather ElementAverage
Visibility9.8 mi
Wind DirectionSE (140 °)

Weather ElementTotal
Precipitation---
Heating Degree Days37.5 (Base 65)
Averaged from 25 records on January 31, 2013
WEATHER CONDITIONS BREAKOUT
WIND DIRECTION BREAKOUT
WEATHER BY HOUR - JANUARY 31, 2013
[ °C ]   °F
Local TimeTemperatureDewpointHumidityBarometerVisibilityWind DirectionWind SpeedGust SpeedPrecipitationEventsConditions
1:52 AM28.9 °F16.0 °F58 %30.01 in10.0 miWSW (250°)12.7 mphScattered Clouds
2:52 AM28.9 °F16.0 °F58 %30.01 in10.0 miWest (260°)9.2 mphClear
3:52 AM25.0 °F16.0 °F69 %30.00 in10.0 miSSW (200°)4.6 mphScattered Clouds
4:52 AM24.1 °F15.1 °F69 %29.98 in10.0 miSW (230°)4.6 mphClear
5:52 AM23.0 °F15.1 °F72 %30.00 in10.0 miWSW (250°)6.9 mphScattered Clouds
6:52 AM27.0 °F17.1 °F66 %30.01 in10.0 miWest (260°)8.1 mphPartly Cloudy
7:52 AM23.0 °F17.1 °F78 %30.06 in10.0 miNNW (340°)5.8 mphOvercast
8:52 AM26.1 °F19.0 °F75 %30.10 in10.0 miNW (310°)9.2 mphScattered Clouds
9:52 AM30.9 °F21.9 °F69 %30.15 in10.0 miNorth (360°)10.4 mphPartly Cloudy
10:52 AM35.1 °F25.0 °F67 %30.17 in10.0 miNNE (30°)11.5 mphMostly Cloudy
11:52 AM37.0 °F28.0 °F70 %30.21 in10.0 miNNE (20°)12.7 mph20.7 mphPartly Cloudy
12:52 PM35.1 °F27.0 °F72 %30.22 in10.0 miNNE (30°)17.3 mphClear
2:52 PM30.9 °F21.9 °F69 %30.26 in10.0 miNE (40°)16.1 mphScattered Clouds
3:28 PM28.4 °F21.2 °F74 %30.21 in10.0 miNE (40°)17.3 mph21.9 mphMostly Cloudy
3:52 PM30.0 °F21.0 °F69 %30.30 in10.0 miNE (50°)13.8 mphMostly Cloudy
4:52 PM27.0 °F19.9 °F75 %30.31 in10.0 miNE (50°)12.7 mph19.6 mphOvercast
5:05 PM26.6 °F19.4 °F74 %30.25 in10.0 miNE (50°)11.5 mphOvercast
5:52 PM24.1 °F18.0 °F77 %30.34 in10.0 miNE (50°)10.4 mphMostly Cloudy
6:19 PM21.2 °F17.6 °F86 %30.27 in10.0 miENE (60°)3.5 mphScattered Clouds
6:52 PM21.0 °F16.0 °F81 %30.39 in10.0 miCalmClear
7:52 PM19.0 °F16.0 °F88 %30.41 in9.0 miEast (80°)6.9 mphPartly Cloudy
8:52 PM19.0 °F15.1 °F85 %30.39 in9.0 miEast (90°)6.9 mphClear
9:52 PM19.0 °F15.1 °F85 %30.40 in9.0 miSSE (150°)8.1 mphClear
10:52 PM18.0 °F14.0 °F84 %30.39 in9.0 miSSE (150°)5.8 mphClear
11:52 PM18.0 °F14.0 °F84 %30.37 in9.0 miSSE (150°)6.9 mphClear
Hourly data recorded from KDDC, located miles away from Wright, Kansas







STORIES FROM OUR PARTNERS